Weather in Sololá

Guatemala     14°46′24″N   91°10′57″W
temp.,
°C
wind,
m/s
gust,
m/s
humid.,
%
clouds,
%
prec.,
mm/h
press.,
hPa
HPBL,
m
24 january, mon
mon2400:00+10nne349225 0.0 1018124
03:00+10n339010 0.0 101779
06:00+9n33870 0.0 101844
09:00+17se11565 0.0 1017696
12:00+20s334745 0.0 10141746
15:00+16ssw237497 0.4 1014926
18:00+13s119976 1.4 101681
21:00+13nw119634 0.3 101726
25 january, tue
tue2500:00+11nw11974 0.3 101722
03:00+10nnw11950 0.0 101724
06:00+9nnw21910 0.0 101823
09:00+16ssw12640 0.0 1018622
12:00+21ssw334413 0.0 10151725
15:00+18s336437 0.3 10141024
18:00+13s119530 0.4 101652
21:00+12nne22881 0.0 101832
26 january, wed
wed2600:00+12nne33820 0.0 101844
03:00+11nne33880 0.0 101745
06:00+10nne33890 0.0 101852
09:00+17e12580 0.0 1018745
12:00+21sse235159 0.1 10151701
15:00+16s127694 0.4 1015544
18:00+13e119314 1.3 101717
21:00+11nne33943 0.1 102053
27 january, thu
thu2700:00+10n33942 0.1 102058
03:00+9n33900 0.0 101950
06:00+9n33850 0.0 102048
09:00+17ne12530 0.0 1019585
12:00+21sse24350 0.0 10161979
15:00+20s335366 0.1 10141560
18:00+13sse119628 0.7 101717
21:00+11nne33871 0.0 102040
28 january, fri
fri2800:00+11n22891 0.0 102039
03:00+10n22885 0.0 101827
06:00+10nnw228528 0.0 101925
09:00+17ssw11631 0.0 1019747
12:00+21s334421 0.0 10161994
15:00+16ssw338265 1.9 1015397
18:00+14s119492 3.9 101730
21:00+13nne239083 0.3 101949